Date String (YYYY-MM-DD hh:mm:ss) UTC,Instrument flags,absolute air pressure of the measurement (hPa),sample flow rate (lpm),inlet stack bypass flow (lpm),air temperature of the measurement (°C),ambient temperature measured by the external sensor (°C),aerosol sample conditioner tube jacket temperature (°C),OPC LED temperature (°C),internal box temperature (°C),relative humidity of the measurement (%),span deviation,mass concentration of particles derived from Lorenz-Mie calculation of OPC scattering (μg/m³),mass concentration of particles derived from Lorenz-Mie calculation of OPC scattering (μg/m³),mass concentration of particles derived from Lorenz-Mie calculation of OPC scattering (μg/m³)
DateTimeUTC,F1_M11,P_M11,Q1_M11,Q2_M11,T1_M11,T2_M11,T3_M11,T4_M11,T5_M11,U1_M11,ZSPAN_M11,X0_M11,X2_M11,X1_M11
2023-06-22 05:00:00,SystemResetWarning,0832.5,5.00,000.00,030.9,026.9,000.0,039.3,031.5,31.7,0002.3,0020.86,0009.47,0007.20
2023-06-22 05:01:00,SystemResetWarning,0832.5,4.99,000.00,030.8,027.2,000.0,039.3,031.5,32.3,0002.2,0020.17,0009.61,0007.28
2023-06-22 05:02:00,SystemResetWarning,0832.5,5.00,000.00,030.8,027.5,000.0,039.3,031.5,32.8,0002.0,0020.87,0009.68,0007.31
2023-06-22 05:03:00,SystemResetWarning,0832.5,5.01,000.00,030.8,027.7,000.0,039.3,031.5,32.7,0001.5,0021.69,0009.65,0007.28
2023-06-22 05:04:00,SystemResetWarning,0832.5,5.01,000.00,030.8,027.9,000.0,039.3,031.6,32.3,0001.0,0022.86,0009.67,0007.28
2023-06-22 05:05:00,SystemResetWarning,0832.5,4.99,000.00,030.8,028.0,000.0,039.2,031.6,32.1,0000.9,0023.46,0009.66,0007.28
2023-06-22 05:06:00,SystemResetWarning,0832.5,5.00,000.00,030.8,028.1,000.0,039.2,031.6,32.8,0001.2,0023.50,0009.66,0007.30
2023-06-22 05:07:00,SystemResetWarning,0832.5,5.00,000.00,030.8,028.2,000.0,039.2,031.7,33.6,0001.3,0023.10,0009.66,0007.28
2023-06-22 05:08:00,SystemResetWarning,0832.6,5.00,000.00,030.8,028.3,000.0,039.2,031.7,33.4,0001.3,0023.44,0009.62,0007.25
2023-06-22 05:09:00,SystemResetWarning,0832.6,5.00,000.00,030.8,028.4,000.0,039.2,031.7,33.7,0001.4,0023.55,0009.57,0007.22
2023-06-22 05:10:00,SystemResetWarning,0832.7,5.00,000.00,030.8,028.5,000.0,039.2,031.7,34.0,0001.6,0022.84,0009.56,0007.19
2023-06-22 05:11:00,SystemResetWarning,0832.6,5.00,000.00,030.8,028.5,000.0,039.2,031.7,34.1,0001.8,0022.76,0009.60,0007.18
2023-06-22 05:12:00,SystemResetWarning,0832.6,5.01,000.00,030.8,028.6,000.0,039.2,031.8,34.1,0002.1,0023.37,0009.65,0007.17
2023-06-22 05:13:00,SystemResetWarning,0832.7,5.01,000.00,030.8,028.7,000.0,039.2,031.8,34.1,0002.0,0023.54,0009.59,0007.17
2023-06-22 05:14:00,SystemResetWarning,0832.7,5.00,000.00,030.8,028.0,000.0,039.2,031.9,34.1,0001.9,0022.89,0009.55,0007.15
2023-06-22 05:15:00,SystemResetWarning,0832.7,5.00,000.00,030.8,025.9,000.0,039.1,031.8,34.0,0002.2,0021.90,0009.50,0007.16
2023-06-22 05:16:00,SystemResetWarning,0832.6,5.02,000.00,030.7,025.2,000.0,039.0,031.7,34.1,0002.5,0021.43,0009.45,0007.11
2023-06-22 05:17:00,SystemResetWarning,0832.5,4.99,000.00,030.6,025.3,000.0,039.0,031.3,34.5,0002.8,0021.09,0009.42,0007.07
2023-06-22 05:18:00,SystemResetWarning,0832.5,5.00,000.00,030.5,025.7,000.0,039.0,031.2,34.8,0002.6,0020.61,0009.28,0007.04
2023-06-22 05:19:00,SystemResetWarning,0832.5,4.99,000.00,030.4,026.1,000.0,039.0,031.3,35.1,0002.7,0020.27,0009.23,0007.02
2023-06-22 05:20:00,SystemResetWarning,0832.5,5.03,000.00,030.6,026.6,000.0,039.0,031.4,35.0,0002.5,0019.75,0009.22,0007.02
2023-06-22 05:21:00,SystemResetWarning,0832.5,4.97,000.00,030.7,026.9,000.0,038.9,031.5,34.4,0002.6,0019.69,0009.18,0007.01
2023-06-22 05:22:00,SystemResetWarning,0832.4,5.02,000.00,030.9,027.2,000.0,039.0,031.5,34.1,0002.5,0020.43,0009.13,0007.00
2023-06-22 05:23:00,SystemResetWarning,0832.3,5.00,000.00,030.9,027.5,000.0,039.0,031.6,34.0,0002.6,0019.64,0009.04,0006.98
2023-06-22 05:24:00,SystemResetWarning,0832.3,4.99,000.00,030.9,027.7,000.0,039.0,031.6,33.9,0002.4,0018.89,0009.01,0006.96
2023-06-22 05:25:00,SystemResetWarning,0832.3,5.00,000.00,031.0,027.9,000.0,039.1,031.6,33.8,0002.6,0019.51,0008.96,0006.96
2023-06-22 05:26:00,SystemResetWarning,0832.3,5.01,000.00,031.0,028.1,000.0,039.1,031.7,33.7,0002.7,0019.86,0008.97,0006.96
2023-06-22 05:27:00,SystemResetWarning,0832.3,5.00,000.00,031.0,028.2,000.0,039.1,031.7,33.7,0002.8,0019.00,0008.85,0006.95
2023-06-22 05:28:00,SystemResetWarning,0832.3,5.00,000.00,031.0,028.3,000.0,039.2,031.7,33.6,0002.5,0018.52,0008.79,0006.92
2023-06-22 05:29:00,SystemResetWarning,0832.4,4.99,000.00,031.0,028.4,000.0,039.2,031.7,33.7,0002.8,0018.76,0008.86,0006.92
2023-06-22 05:30:00,SystemResetWarning,0832.5,5.00,000.00,031.0,028.5,000.0,039.2,031.8,33.8,0003.0,0018.93,0008.84,0006.93
2023-06-22 05:31:00,SystemResetWarning,0832.6,5.00,000.00,031.0,028.6,000.0,039.2,031.8,33.8,0003.1,0018.69,0008.81,0006.94
2023-06-22 05:32:00,SystemResetWarning,0832.7,5.00,000.00,031.0,028.6,000.0,039.3,031.9,33.8,0003.1,0018.95,0008.81,0006.95
2023-06-22 05:33:00,SystemResetWarning,0832.7,5.01,000.00,031.0,028.7,000.0,039.3,031.9,33.8,0003.1,0018.23,0008.81,0006.95
2023-06-22 05:34:00,SystemResetWarning,0832.8,5.00,000.00,031.0,028.7,000.0,039.3,031.9,33.7,0003.1,0018.26,0008.83,0006.96
2023-06-22 05:35:00,SystemResetWarning,0832.8,5.00,000.00,031.1,028.8,000.0,039.3,031.9,33.5,0003.2,0018.42,0008.85,0006.98
2023-06-22 05:36:00,SystemResetWarning,0832.8,4.99,000.00,031.1,027.8,000.0,039.3,031.9,33.6,0003.2,0018.46,0008.93,0007.02
2023-06-22 05:37:00,SystemResetWarning,0832.7,5.01,000.00,031.0,025.8,000.0,039.2,031.9,33.8,0003.1,0017.92,0009.01,0007.05
2023-06-22 05:38:00,SystemResetWarning,0832.6,5.01,000.00,031.0,025.2,000.0,039.2,031.7,33.9,0002.8,0018.84,0009.15,0007.07
2023-06-22 05:39:00,SystemResetWarning,0832.6,5.01,000.00,030.8,025.4,000.0,039.2,031.4,34.4,0002.9,0018.95,0009.21,0007.11
2023-06-22 05:40:00,SystemResetWarning,0832.7,5.00,000.00,030.7,025.8,000.0,039.2,031.4,34.7,0002.6,0019.11,0009.21,0007.14
2023-06-22 05:41:00,SystemResetWarning,0832.6,4.98,000.00,030.7,026.2,000.0,039.1,031.4,35.1,0002.3,0019.52,0009.27,0007.14
2023-06-22 05:42:00,SystemResetWarning,0832.7,5.04,000.00,030.7,026.7,000.0,039.1,031.5,34.9,0001.8,0020.42,0009.32,0007.15
2023-06-22 05:43:00,SystemResetWarning,0832.7,4.96,000.00,030.9,027.0,000.0,039.1,031.6,34.4,0001.6,0020.60,0009.36,0007.16
2023-06-22 05:44:00,SystemResetWarning,0832.8,5.01,000.00,031.0,027.3,000.0,039.1,031.7,34.1,0001.8,0021.50,0009.38,0007.18
2023-06-22 05:45:00,SystemResetWarning,0833.0,5.01,000.00,031.0,027.6,000.0,039.1,031.7,34.1,0001.2,0021.79,0009.31,0007.16
2023-06-22 05:46:00,SystemResetWarning,0833.1,5.00,000.00,031.1,027.8,000.0,039.2,031.7,34.1,0001.0,0022.22,0009.17,0007.11
2023-06-22 05:47:00,SystemResetWarning,0832.8,5.01,000.00,031.1,027.9,000.0,039.2,031.7,33.9,0001.2,0022.23,0009.07,0007.06
2023-06-22 05:48:00,SystemResetWarning,0832.8,5.00,000.00,031.1,028.1,000.0,039.2,031.7,33.9,0001.4,0021.78,0009.03,0007.02
2023-06-22 05:49:00,SystemResetWarning,0832.8,5.00,000.00,031.1,028.2,000.0,039.2,031.7,33.9,0001.5,0021.17,0008.96,0006.99
2023-06-22 05:50:00,SystemResetWarning,0832.8,5.00,000.00,031.1,028.3,000.0,039.3,031.7,34.0,0001.2,0021.88,0008.95,0006.97
2023-06-22 05:51:00,SystemResetWarning,0832.8,4.99,000.00,031.1,028.4,000.0,039.3,031.8,33.9,0001.2,0022.17,0008.92,0006.93
2023-06-22 05:52:00,SystemResetWarning,0832.7,5.00,000.00,031.1,028.4,000.0,039.3,031.8,33.9,0001.5,0021.97,0008.87,0006.88
2023-06-22 05:53:00,SystemResetWarning,0832.7,5.00,000.00,031.1,028.5,000.0,039.3,031.8,34.0,0001.9,0021.55,0008.90,0006.86
2023-06-22 05:54:00,SystemResetWarning,0832.7,5.00,000.00,031.1,028.5,000.0,039.4,031.9,34.1,0002.0,0021.35,0008.87,0006.82
2023-06-22 05:55:00,SystemResetWarning,0832.7,5.01,000.00,031.1,028.6,000.0,039.4,031.9,34.1,0001.8,0020.48,0008.85,0006.80
2023-06-22 05:56:00,SystemResetWarning,0832.7,5.00,000.00,031.1,028.6,000.0,039.4,031.9,34.0,0002.1,0020.36,0008.81,0006.79
2023-06-22 05:57:00,SystemResetWarning,0832.6,5.00,000.00,031.1,028.7,000.0,039.4,031.9,34.1,0002.6,0020.04,0008.89,0006.82
2023-06-22 05:58:00,SystemResetWarning,0832.7,5.00,000.00,031.1,028.7,000.0,039.4,031.9,34.2,0002.1,0019.38,0009.02,0006.85
2023-06-22 05:59:00,SystemResetWarning,0832.7,4.99,000.00,031.1,028.5,000.0,039.4,032.0,34.2,0001.8,0019.74,0008.98,0006.85
